Find Kosmos-2016

NORAD ID: 19921 Int'l Des: 1989-028 Owner: VMF Country: SU operational
LEOCIRCULARPOLAR

实时位置

正在加载3D地球...

关于 Kosmos-2016

正在加载描述...

即将过境

Passes for default location (London). Set your location on the main map for personalized predictions.

高度历史

Loading altitude history...

两行轨道根数

1 19921U 89028A 26129.32075397 .00000055 00000-0 41608-4 0 9998
2 19921 82.9642 216.2487 0038336 301.2176 120.6226 13.75340377860539
Epoch: May 9, 2026 • Age: 13 hours

当前状态

高度 993.5 km
速度 7.35 km/s
星下点 -15.65°S, 138.41°W
发射日期 Apr 4, 1989
运行时间 37 years
类型 other

技术详情

分类 Payload
质量 800.00 kg
干质量 800.00 kg
总质量 800.00 kg
长度 5.00 m
直径 2.10 m
跨度 17.00 m
形状 Cyl + Ant
制造商 OAZ
平台类型 KAUR-1 11F627
阶段状态 In Orbit
所有者/国家 VMF/SU

Most Searched